FW7407 Weather Reports


time (UTC)temp
C
wind
direction
speed
KPH
gust
KPH
rain 1hr
cm
rain 24hr
cm
rain mn
cm
humidity
%
barometer
mb
20260508033051 16 276 1.6 4.8 0.00 0.00 0.00 92 1016.2
20260508031552 16 210 1.6 6.4 0.00 0.00 0.00 92 1015.8
20260508030052 16 205 0.0 4.8 0.00 0.00 0.00 92 1015.6
20260508024556 16 250 1.6 4.8 0.00 0.00 0.00 91 1015.5
20260508023048 16 193 0.0 4.8 0.00 0.00 0.00 91 1015.2
20260508021548 16 243 1.6 4.8 0.00 0.00 0.00 91 1015.1
20260508020046 16 226 1.6 4.8 0.00 0.00 0.00 90 1014.9
20260508014545 16 224 1.6 6.4 0.00 0.00 0.00 89 1015.1
20260508013045 17 193 3.2 6.4 0.00 0.00 0.00 88 1014.9
20260508011557 17 0 1.6 6.4 0.00 0.00 0.00 87 1014.8
20260508010045 18 242 3.2 8.0 0.00 0.00 0.00 84 1015.0
20260508004559 18 130 3.2 9.7 0.00 0.00 0.00 86 1014.7
20260508003047 18 155 3.2 9.7 0.00 0.00 0.00 85 1014.8
20260508001550 17 201 4.8 8.0 0.00 0.00 0.00 85 1014.8
20260508000052 17 186 3.2 6.4 0.00 0.00 0.00 85 1014.9
20260507234555 17 205 3.2 8.0 0.00 0.00 0.00 87 1014.9
20260507233045 18 236 1.6 8.0 0.00 0.00 0.00 85 1014.9
20260507231551 17 239 3.2 8.0 0.00 0.00 0.00 86 1014.9
20260507230048 17 251 3.2 8.0 0.00 0.00 0.00 85 1015.0
20260507224559 18 239 4.8 8.0 0.00 0.00 0.00 85 1015.2
20260507223056 18 230 3.2 8.0 0.00 0.00 0.00 84 1015.3
20260507221550 18 196 4.8 9.7 0.00 0.00 0.00 85 1015.4
20260507220051 18 190 4.8 9.7 0.00 0.00 0.00 83 1015.6
20260507214549 18 223 4.8 11.3 0.00 0.00 0.00 83 1015.8
20260507213051 18 251 4.8 12.9 0.00 0.00 0.00 82 1016.1
20260507211545 18 266 4.8 11.3 0.00 0.00 0.00 83 1016.2
20260507210053 18 266 6.4 11.3 0.00 0.00 0.00 83 1016.2
20260507204553 18 273 4.8 11.3 0.00 0.00 0.00 82 1016.3
20260507203053 18 245 4.8 9.7 0.00 0.00 0.00 83 1016.5
20260507201556 18 248 4.8 11.3 0.00 0.00 0.00 82 1016.4
20260507200057 18 249 4.8 11.3 0.00 0.00 0.00 81 1016.5
20260507194551 18 212 3.2 11.3 0.00 0.00 0.00 82 1016.6
20260507193054 18 264 3.2 8.0 0.00 0.00 0.00 82 1016.6
20260507191552 18 211 3.2 9.7 0.00 0.00 0.00 83 1016.8
20260507190051 18 231 4.8 8.0 0.00 0.00 0.00 81 1017.1
20260507184551 18 252 3.2 8.0 0.00 0.00 0.00 82 1017.2
20260507183045 17 189 4.8 8.0 0.00 0.00 0.00 83 1017.4
20260507181547 18 233 4.8 9.7 0.00 0.00 0.00 82 1017.3
20260507180053 17 231 4.8 9.7 0.00 0.00 0.00 83 1017.4
20260507174558 17 178 4.8 8.0 0.00 0.00 0.00 84 1017.2
20260507173047 17 157 1.6 6.4 0.00 0.00 0.00 85 1017.5
20260507171604 17 243 1.6 6.4 0.00 0.00 0.00 86 1017.4
20260507170050 16 254 1.6 6.4 0.00 0.00 0.00 87 1017.4
20260507164544 16 113 1.6 4.8 0.00 0.00 0.00 88 1017.4
20260507163050 16 233 1.6 6.4 0.00 0.00 0.00 90 1017.4
20260507161547 16 191 1.6 4.8 0.00 0.00 0.00 90 1017.3
20260507160049 15 271 1.6 4.8 0.00 0.00 0.00 92 1017.2
20260507154547 15 239 0.0 3.2 0.00 0.00 0.00 92 1017.4
20260507153045 15 0 0.0 4.8 0.00 0.00 0.00 92 1017.6
20260507151544 15 264 1.6 4.8 0.00 0.00 0.00 92 1017.6
20260507150055 15 0 0.0 6.4 0.00 0.00 0.00 92 1017.5
20260507144612 15 0 0.0 1.6 0.00 0.00 0.00 94 1017.4
20260507143049 14 0 0.0 0.0 0.00 0.00 0.00 95 1017.2
20260507141606 13 0 0.0 0.0 0.00 0.00 0.00 95 1017.1
20260507140055 13 0 0.0 0.0 0.00 0.00 0.00 95 1017.0
20260507134556 12 0 0.0 0.0 0.00 0.00 0.00 95 1016.8
20260507133051 12 0 0.0 0.0 0.00 0.00 0.00 94 1016.6
20260507131547 12 0 0.0 0.0 0.00 0.00 0.00 94 1016.6
20260507130047 12 0 0.0 0.0 0.00 0.00 0.00 95 1016.4
20260507124546 12 0 0.0 0.0 0.00 0.00 0.00 94 1016.3
20260507123050 12 0 0.0 0.0 0.00 0.00 0.00 94 1016.3
20260507121548 13 0 0.0 0.0 0.00 0.00 0.00 94 1016.2
20260507120054 12 0 0.0 0.0 0.00 0.00 0.00 94 1016.3
20260507114547 12 0 0.0 0.0 0.00 0.00 0.00 94 1016.3
20260507113047 12 0 0.0 0.0 0.00 0.00 0.00 94 1016.3
20260507111551 12 51 0.0 1.6 0.00 0.00 0.00 94 1016.5
20260507110045 12 0 0.0 0.0 0.00 0.00 0.00 94 1016.7
20260507104556 13 0 0.0 0.0 0.00 0.00 0.00 94 1016.8
20260507103049 12 0 0.0 0.0 0.00 0.00 0.00 94 1016.8
20260507101551 13 0 0.0 0.0 0.00 0.00 0.00 94 1016.8
20260507100047 13 0 0.0 0.0 0.00 0.00 0.00 95 1016.8
20260507094548 13 0 0.0 1.6 0.00 0.00 0.00 94 1016.9
20260507093047 13 0 0.0 0.0 0.00 0.00 0.00 95 1017.0
20260507091544 13 0 0.0 0.0 0.00 0.00 0.00 94 1017.2
20260507090046 13 0 0.0 4.8 0.00 0.00 0.00 95 1017.3
20260507084553 13 0 0.0 0.0 0.00 0.00 0.00 94 1017.7
20260507083049 13 0 0.0 0.0 0.00 0.00 0.00 95 1017.7
20260507081557 13 0 0.0 0.0 0.00 0.00 0.00 94 1017.9
20260507080050 13 0 0.0 1.6 0.00 0.00 0.00 94 1018.0
20260507074552 13 60 0.0 1.6 0.00 0.00 0.00 93 1017.9
20260507073052 14 67 0.0 1.6 0.00 0.00 0.00 93 1017.9
20260507071557 14 0 0.0 4.8 0.00 0.00 0.00 92 1017.9
20260507070059 14 10 1.6 6.4 0.00 0.00 0.00 92 1018.0
20260507064553 14 50 0.0 3.2 0.00 0.00 0.00 91 1018.1
20260507063053 14 37 0.0 4.8 0.00 0.00 0.00 91 1018.2
20260507061552 14 0 0.0 3.2 0.00 0.00 0.00 90 1018.1
20260507060055 14 0 0.0 4.8 0.00 0.00 0.00 90 1018.3
20260507054548 14 0 0.0 0.0 0.00 0.00 0.00 88 1018.1
20260507053056 14 0 0.0 0.0 0.00 0.00 0.00 87 1017.9
20260507051549 14 0 0.0 0.0 0.00 0.00 0.00 86 1017.8
20260507050050 15 0 0.0 0.0 0.00 0.00 0.00 86 1017.8
20260507044557 15 0 0.0 0.0 0.00 0.00 0.00 86 1017.8
20260507043048 14 0 0.0 0.0 0.00 0.00 0.00 87 1017.8
20260507041550 15 0 0.0 3.2 0.00 0.00 0.00 87 1017.9
20260507040055 15 0 0.0 4.8 0.00 0.00 0.00 87 1017.8
20260507034550 15 21 1.6 4.8 0.00 0.00 0.00 86 1017.8